Location: Asheville, NC
(35.6000°N, 82.5500°W)
Time: 10:58:13
(UTC-04:00)

Envisat - Pass Details

Date: 17 February 2018
Orbit: 764 x 766 km, 98.2° (Epoch: 24 May)

Event Time Altitude Azimuth Distance (km) Brightness Sun altitude
Exits shadow 21:21:03 - 221° (SW) 2,651 6.0 -38.4°
Reaches altitude 10° 21:22:30 10° 233° (SW) 2,292 5.8 -38.7°
Maximum altitude 21:25:22 15° 268° (W) 1,958 5.7 -39.3°
Drops below altitude 10° 21:28:15 10° 303° (WNW) 2,301 6.1 -39.8°
Sets 21:31:35 0° 326° (NW) 3,232 6.8 -40.5°
